星链-6124 (STARLINK-6124 )

导读

STARLINK-6124是美国SpaceX星链星座中的一颗卫星,于2023年3月29日发射升空。它隶属于Starlink项目,该项目旨在为全球提供高速低延迟互联网覆盖,尤其服务偏远地区与网络基础设施薄弱区域。作为星链低轨卫星互联网星座的组网卫星,它运行在近地轨道,依靠卫星间链路实现数据传输,补充了星座的全球服务能力,推进星链网络的覆盖广度与容量提升。

基本信息
目录编号:
56126
目录名称:
STARLINK-6124
国际标识:
2023-046AL
轨道中心:
EARTH
卫星名称:
星链-6124
卫星全名:
星链-6124 (STARLINK-6124 )
卫星状态:
在轨 (已飞行1255 天)
发射日期:
2023-03-29 UTC
国别 :
美国 (US)
星等 :
--
轨道信息
数据来源 国际轨道数据 AOE轨道数据
星历时间 2026-09-03T15:13:55+0800
22小时前
查看轨道信息
2026-09-03T23:00:00+0800
15小时前
查看轨道信息
半长轴 6861.195km 6861.176km
偏心率 0.0000786 0.0000015
轨道倾角 43.000° 42.999°
近地点辐角 257.202° 175.220°
升交点赤经 223.926° 222.101°
平近点角 102.875° 166.883°
近地点 482.518km 483.028km
远地点 483.598km 483.05km
周期 94.267分钟 94.267分钟
每日圈数 15.275772 15.275837
详细信息
固有亮度:
5
最大亮度:
2.5
卫星平台:
Starlink v1.5
覆盖范围:
全球
运营商:
太空探索技术公司
运营商所在国:
美国
制造商(研发单位):
太空探索技术公司
制造商所在国:
美国
使用方式:
暂无
卫星简介
星链(Starlink)计划是由太空探索技术公司(SpaceX)提出的一个巨型低轨卫星互联网星座项目,计划在2019年至2024年间在太空搭建由约1.2万颗卫星组成的“星链”网络,其中1584颗将部署在地球上空550千米处的近地轨道,并从2020年开始工作。该卫星仍在工作。
2D轨道图
3D轨道图
轨道高度分析图
轨道倾角分析图
轨道综合分析图
查看轨道综合分析图